OBJECT J, 63990

Orbit data source: Space-Track

You're viewing an Uncataloged Satellite

Recently launched and/or uncataloged satellites may have evolving metadata. Metadata may include but not limited to: Owner, Maufacturer, Bus, Motor, and Mission.

OBJECT J, 63990 is a Chinese satellite in SSO that was launched on Wed, 14 May 2025 UTC via a CHANG ZHENG 2D launch vehicle from the Jiuquan Satellite Launch Center, China (JSC). Unknown objects in Earth's orbit typically refer to objects detected orbiting the Earth but have not yet been identified or cataloged. These objects could be anything from previously untracked satellites, spent rocket stages, debris from satellite collisions, or even natural meteoroids temporarily captured by Earth's gravity.

Loading next visibility...
Identifier
63990, 2025-100J
Orbit
SSO
Country
Flag of CNCN / PRC
Related business
None
Manufacturer
Unknown
Mission
Operational Commercial Technology
Bus & Motor
Unknown
Mass
Unknown
Launch date (UTC)
2025-05-14 (1 year ago)
Launch vehicle
CHANG ZHENG 2D
Launch site
Jiuquan Satellite Launch Center, China (JSC)
Object type
Unknown
Shape & HBR
Box + 2 Pan, 1.1 m
Radar Cross Section
0.135 m², Large (>1 m²)

Expand to show TLE details & history
Last TLE update: 13 hours ago

TLE from 13 hours ago
0 OBJECT J
1 63990U 25100J   26206.54217794  .00022757  00000-0  74287-3 0  9994
2 63990  97.3613 282.0353 0010421 146.5670 213.6232 15.31724514 66686
Epoch: 2026-07-25T13:00Z
TLE epoch observation values (Epoch: 2026-07-25T13:00:44.174Z)
Latitude
-0.00001°
Longitude
143.59828°
Altitude
479.721 km
Speed
7.622 km/s
True Right ascension
18h 48m 08s
True Declination
0° 00' 00"
Sunlit
Object was in full shadow at epoch
Visualization orbit readout
Latitude
Unknown
Longitude
Unknown
Altitude
Unknown
Speed
Unknown
Apparent Right ascension
Unknown
Apparent Declination
Unknown
Sunlit
N/A
Visualization observer readout
Local Sidereal Time
15:21:44
Azimuth
Unknown
Elevation
Unknown
Doppler factor
Unknown
Orbital elements
Apogee altitude
474.749 km
Perigee altitude
460.481 km
Semi-major axis
6,845.752 km
Eccentricity
0.00104
Inclination
97.3613°
RAAN
282.0353°
Arg. of periapsis
146.567°
True anomaly
213.55715°
Mean anomaly
213.6232°
Eccentric anomaly
213.59017°
Mean motion
3.83188 °/min
Orbital period
93.95 mins
BSTAR
0.00074287
Loading maneuver chart data...
Computing Atmospheric mass density...
Loading historical data...
Loading historical data...
Loading historical data...
Loading historical data...
Loading historical data...
Loading historical data...
Loading historical data...

Documentation

Showing up to 5 results
|